Wind_Speed
37 36 36 36 36 38 38 36 34 33 32 31 30 31 32 32 33 35 36 36 35 33 31 30 31 32 33 33 33 34 36 37 37 39 43 49 56 64 70 76 81 86 92 98 100 100 98 97 94 86 79 79 83 85 87 88 87 85 84 82 82 89 93 91 87 85 84 83 83 79 76 76 73 66 60 58 58 59 59 60 62 63 62 61 59
39 38 37 36 36 37 38 37 35 33 32 30 30 30 32 33 32 33 34 34 34 33 31 30 31 32 32 31 31 31 32 34 34 35 38 42 47 53 58 65 71 76 83 89 94 97 96 94 93 90 84 78 78 81 84 85 86 85 84 83 83 85 89 89 86 85 84 83 83 80 76 76 73 66 60 59 60 61 62 62 62 63 63 63 62
41 41 39 37 36 36 37 37 35 34 32 31 30 30 31 32 32 32 33 33 34 33 31 31 31 30 29 30 30 29 30 31 31 32 35 39 43 47 51 56 62 67 73 80 86 91 93 93 91 90 89 84 78 77 79 81 82 84 83 81 81 81 83 86 86 86 86 84 83 81 78 76 72 66 63 63 65 66 66 65 65 65 64 65 64
42 42 41 39 37 36 37 36 36 35 34 31 30 30 30 31 31 31 31 32 33 33 32 31 30 30 29 30 30 29 28 29 30 30 32 35 39 44 48 51 56 61 65 71 77 83 87 89 89 89 90 90 86 80 77 77 77 79 79 79 78 78 79 82 83 84 87 87 86 83 80 77 74 69 67 67 69 70 70 69 68 67 66 66 66
44 43 42 40 39 37 37 37 36 37 35 32 31 30 30 30 30 30 30 31 33 33 32 31 30 30 30 31 31 30 29 28 29 29 30 31 35 38 43 47 51 55 60 64 70 75 80 84 86 87 86 89 90 88 83 80 77 76 76 76 76 76 77 79 80 80 83 87 87 84 82 79 76 74 72 72 72 72 73 72 71 69 68 67 67
44 43 42 41 40 39 38 37 37 38 37 34 32 31 30 29 29 28 29 30 32 33 33 32 31 30 30 31 31 30 29 28 28 28 29 29 31 34 37 41 45 50 55 59 64 68 73 78 82 85 84 83 86 89 88 86 83 80 78 77 76 76 77 79 79 78 78 81 84 83 81 80 80 79 78 76 74 73 73 72 71 69 68 67 68
44 43 41 40 40 41 40 37 36 38 37 35 33 31 30 29 28 27 27 28 30 32 33 32 31 31 30 31 31 31 31 30 28 28 29 29 30 31 33 35 39 43 48 53 58 62 67 72 77 82 83 81 81 84 86 86 85 84 83 82 81 80 80 81 82 82 81 80 81 82 82 83 84 83 82 79 76 74 74 73 72 71 71 70 69
44 43 41 40 40 41 40 37 36 37 36 35 33 31 30 29 28 27 26 26 28 30 32 33 32 31 30 31 31 32 32 31 30 29 30 30 30 30 31 33 35 38 42 46 51 56 61 66 71 76 81 82 80 80 82 82 83 83 84 84 84 84 84 83 84 86 87 86 85 85 85 86 86 85 84 82 80 76 75 74 74 74 73 72 71
44 42 42 41 41 40 38 35 35 34 34 33 32 30 29 28 27 26 26 25 27 28 31 33 33 32 31 32 33 34 33 32 31 30 31 31 31 30 31 32 34 36 39 42 45 50 54 59 64 69 74 78 81 81 82 82 82 81 81 82 84 85 85 85 85 85 86 86 85 84 84 84 84 84 83 82 80 79 78 77 76 75 75 74 73
44 41 40 41 42 40 36 34 35 33 31 31 31 29 28 26 26 26 25 25 25 27 29 32 34 33 33 33 34 35 34 32 32 32 32 32 32 32 32 33 33 34 36 39 41 44 48 52 56 61 66 71 75 78 81 82 83 83 82 82 82 84 85 86 86 86 85 84 83 83 82 82 82 82 82 82 82 82 81 80 79 78 78 76 75
41 38 36 38 41 39 34 33 34 32 29 29 29 28 26 25 25 25 24 24 24 25 27 29 32 34 35 35 35 36 35 33 33 34 34 34 34 35 35 35 34 34 35 36 38 40 43 47 50 54 58 62 67 71 75 78 81 82 84 84 84 84 85 86 86 87 86 85 84 83 82 82 82 82 83 83 84 84 83 82 81 81 80 78 77
37 34 31 33 37 35 31 31 32 30 27 27 27 26 25 24 24 24 23 23 23 24 25 27 30 33 35 36 36 36 36 34 35 35 36 36 37 38 38 38 37 37 38 38 39 40 41 43 45 48 51 54 58 62 66 70 74 77 80 82 84 85 86 87 87 88 88 88 87 86 84 82 81 81 80 80 80 80 80 80 81 81 80 79 78
32 29 27 28 30 29 27 27 28 26 24 24 23 23 23 23 23 23 22 22 23 24 25 26 28 30 32 35 36 36 37 37 37 37 38 39 40 40 41 40 40 41 41 42 42 43 43 44 44 45 47 49 51 54 57 60 64 69 73 76 79 82 83 85 87 88 89 90 91 91 89 88 87 85 83 82 81 79 77 77 77 78 79 79 79
25 23 22 22 22 22 22 22 22 20 20 20 20 20 21 22 22 23 22 22 22 23 24 24 26 27 29 31 33 34 35 37 37 38 39 40 41 41 42 42 43 43 44 44 45 45 46 47 47 48 49 50 51 52 53 55 57 60 63 67 70 73 75 78 80 82 85 87 88 89 89 89 89 89 88 87 85 83 80 78 76 76 78 79 78
20 17 16 14 14 15 16 16 15 15 15 16 17 17 19 20 21 22 22 21 21 20 20 20 21 23 25 27 28 30 32 34 36 37 38 39 40 41 43 44 44 44 44 45 46 47 48 49 49 50 51 52 53 54 55 57 58 59 59 60 61 63 65 67 69 71 74 76 78 79 80 81 83 83 85 85 85 84 83 82 80 78 79 80 78
16 12 8 6 6 8 10 10 11 11 11 12 14 15 16 18 19 19 18 17 16 16 16 16 17 19 20 22 23 25 27 30 32 34 35 37 38 40 42 43 44 45 45 46 47 48 49 50 51 52 53 53 54 56 58 60 61 61 61 60 60 61 61 61 62 63 65 66 67 68 69 72 74 76 78 81 82 82 83 83 83 81 81 81 78
16 11 7 4 2 3 5 6 7 7 8 10 11 12 13 13 13 13 12 12 12 12 13 14 16 17 18 20 21 23 25 26 28 30 32 34 37 38 40 42 44 45 46 47 48 50 50 52 52 53 54 54 55 57 60 62 63 63 63 63 63 63 63 63 63 64 64 63 63 63 63 64 66 67 70 75 80 81 81 81 81 80 80 79 77
16 13 9 6 3 2 2 3 3 5 6 7 8 9 8 8 8 9 9 10 11 12 13 14 15 16 17 18 19 20 21 23 23 25 26 28 31 33 36 39 41 44 45 47 48 49 50 51 52 53 54 54 54 56 59 62 63 63 63 64 65 65 65 66 66 66 66 66 65 64 64 63 63 62 63 66 73 79 80 79 79 77 75 73 73
16 13 10 8 5 3 2 1 2 3 4 4 4 5 6 6 7 8 8 9 9 9 9 8 8 8 9 10 10 11 13 14 15 15 16 18 20 22 25 28 31 35 39 42 44 46 46 46 48 49 49 49 50 53 56 60 61 61 62 64 65 65 66 66 68 68 68 68 67 66 65 65 64 63 62 61 66 73 77 76 75 74 70 67 67
15 12 10 8 6 5 4 4 4 3 1 1 2 3 4 4 5 5 5 4 2 1 0 1 0 1 2 4 5 5 7 8 10 11 12 13 15 15 15 17 19 23 27 32 36 37 37 38 39 39 39 41 43 46 49 52 54 54 55 57 60 62 63 65 67 68 68 68 68 67 66 66 65 65 64 62 62 67 72 72 71 69 64 61 60
14 12 11 9 8 7 7 6 5 3 2 1 1 1 1 2 2 3 5 6 6 5 4 3 1 1 1 2 3 4 6 7 9 11 13 15 16 16 15 14 14 15 18 22 25 26 27 28 28 30 32 34 35 37 40 43 45 44 44 47 51 54 57 60 62 65 66 67 67 66 66 66 66 65 62 58 57 60 64 66 65 62 58 55 54
14 13 12 10 9 8 7 6 5 5 5 5 5 5 7 9 10 11 10 9 7 6 4 3 2 1 2 3 4 5 7 8 9 11 13 15 17 18 17 15 13 13 13 14 16 18 19 21 22 25 26 27 28 31 33 35 37 37 37 41 44 44 46 50 53 57 59 61 61 62 63 63 62 59 54 51 51 54 57 59 58 55 51 50 50
14 13 12 11 10 9 7 7 8 8 9 9 10 11 13 14 13 11 9 7 6 5 4 2 2 3 5 6 6 7 7 7 8 10 12 15 17 19 19 17 15 13 12 12 14 16 17 19 21 22 24 25 26 28 30 32 33 33 34 37 38 37 39 42 45 47 49 50 51 53 54 53 51 48 46 46 47 49 51 52 51 50 48 48 48
14 13 13 11 10 9 10 11 12 13 13 13 14 14 14 13 11 10 9 7 6 5 5 5 5 6 7 8 8 7 7 7 7 9 13 15 17 17 17 17 16 16 15 16 17 18 18 17 18 20 21 21 21 22 24 25 26 26 29 31 31 32 34 36 37 38 39 40 41 42 43 42 41 41 42 43 45 46 46 47 47 48 47 46 46
15 14 12 10 10 12 14 15 14 14 15 15 15 15 13 12 11 10 9 7 6 6 6 7 6 7 7 8 9 8 7 7 8 10 13 13 12 11 10 11 12 13 14 15 15 14 13 12 13 14 14 12 11 12 12 13 15 19 22 24 23 25 29 31 33 34 34 35 35 36 37 38 39 40 41 43 43 44 44 44 45 45 44 44 44
15 13 11 11 14 16 16 15 14 15 15 15 15 13 12 11 10 9 9 8 8 9 10 10 9 9 8 7 7 7 6 6 7 8 9 9 10 10 7 3 2 3 5 7 9 11 10 8 10 11 12 11 9 8 8 10 13 14 14 15 18 22 26 29 30 31 31 32 34 35 36 37 39 40 40 41 41 41 41 41 41 41 42 43 45
14 12 13 15 17 17 16 14 14 15 15 14 14 13 12 11 11 11 11 11 12 12 12 12 11 11 10 7 5 3 2 3 5 6 5 5 7 9 8 6 3 0 2 4 6 9 9 8 9 12 13 10 9 8 9 10 10 9 9 12 16 20 24 27 28 29 29 30 32 32 33 34 35 36 36 36 36 37 37 38 39 40 40 41 42
12 13 16 16 16 16 14 14 15 15 14 14 13 12 12 12 12 12 11 10 10 10 10 12 13 11 9 7 4 3 2 3 4 4 3 3 4 5 6 6 4 3 2 2 2 4 6 9 12 12 10 7 7 7 8 8 7 9 13 14 14 17 21 24 26 28 28 28 28 28 29 30 31 32 32 32 33 33 34 35 36 36 36 36 37
13 15 16 15 14 13 13 14 15 15 13 13 12 12 12 13 14 12 11 10 10 12 14 17 17 13 11 10 8 5 4 4 3 3 4 4 3 3 5 6 6 6 5 5 4 3 4 6 8 7 5 3 4 5 6 6 8 12 15 16 16 18 20 22 24 26 26 25 25 25 26 28 29 30 31 31 32 32 32 32 32 32 33 36 38
16 16 15 13 12 11 11 13 15 14 13 13 13 14 14 15 14 12 11 12 13 14 16 19 19 17 14 14 12 10 8 8 6 5 4 4 4 6 8 7 6 6 5 4 4 4 4 4 4 3 3 4 5 5 6 8 10 13 14 15 18 21 22 23 24 24 24 22 22 22 24 26 28 30 31 31 31 30 30 30 31 34 36 39 41
16 15 14 13 13 13 13 15 16 15 14 14 14 14 14 14 13 12 12 13 14 14 16 17 19 19 17 15 14 13 12 12 11 10 9 8 8 8 9 10 10 8 6 5 5 4 4 4 5 5 5 5 5 6 6 8 10 12 13 14 17 20 22 23 23 22 21 20 19 20 21 23 25 27 28 29 30 31 32 33 34 36 38 40 42
16 16 16 16 17 17 17 17 16 15 14 13 13 14 14 14 13 13 14 14 15 15 15 15 17 18 17 15 13 12 13 13 13 13 13 13 12 11 11 11 11 10 9 8 8 7 6 4 4 4 5 6 7 9 10 10 11 12 13 14 15 18 21 22 23 22 21 21 21 21 21 22 24 26 28 30 32 34 35 35 36 38 39 41 43
17 17 17 18 18 18 17 17 15 14 13 14 15 16 16 17 18 18 18 17 16 15 15 14 14 15 16 15 14 12 12 13 13 13 14 15 15 14 13 12 12 12 13 12 11 11 11 10 9 9 10 10 10 12 14 14 14 14 14 14 15 17 19 20 22 23 23 22 23 23 23 25 27 28 31 32 33 34 35 36 38 39 40 42 43
16 16 16 16 16 16 16 15 15 14 14 15 16 17 18 19 20 20 19 19 18 17 15 14 12 12 13 14 14 14 14 13 13 13 13 14 14 14 13 13 13 14 14 15 15 14 15 14 13 13 14 14 14 14 15 15 15 14 14 14 15 16 17 18 20 21 22 22 23 24 25 26 27 28 30 31 33 34 36 37 39 40 41 42 44
14 14 13 13 14 14 14 14 13 13 14 15 16 17 17 18 18 18 17 17 17 17 17 15 13 12 10 10 11 13 14 14 13 11 11 11 11 12 11 11 11 12 13 14 15 14 14 13 13 13 14 15 15 15 16 15 15 14 14 14 15 16 17 18 19 19 20 22 23 24 25 26 28 29 30 32 33 35 37 38 39 40 41 42 44
12 12 11 11 12 12 12 12 12 12 14 15 16 16 17 17 17 17 15 14 15 16 17 16 15 12 10 8 7 8 10 11 11 9 9 9 9 10 10 10 10 10 10 11 12 13 12 12 12 12 13 13 14 14 14 14 13 13 13 13 13 14 15 16 17 18 20 21 22 24 25 26 27 29 30 31 32 33 34 36 37 38 40 41 42
9 9 9 9 9 9 10 10 10 11 12 14 16 16 17 17 17 17 15 14 13 14 15 16 15 14 11 8 6 5 5 7 8 8 7 7 8 9 9 10 10 10 10 10 10 11 11 11 11 11 11 12 12 12 12 12 12 11 10 10 10 10 11 12 13 14 16 17 19 20 22 23 24 26 27 28 29 31 32 34 35 37 38 39 40
5 6 6 6 6 7 8 9 9 9 10 12 13 15 15 16 17 18 17 15 13 13 15 15 16 15 13 9 6 4 2 2 4 6 7 7 8 9 10 11 12 11 11 11 11 10 10 10 9 9 9 9 9 9 9 9 9 9 8 8 9 9 10 10 11 12 14 15 16 18 19 21 22 24 25 27 28 30 31 32 33 34 35 35 36
3 3 3 4 4 4 4 6 7 8 8 9 11 12 13 15 16 17 18 17 15 14 15 16 16 16 14 9 5 3 2 0 1 3 5 7 8 10 11 11 12 11 11 11 11 11 10 10 9 8 8 8 7 7 7 7 7 7 8 8 8 9 10 10 12 13 14 16 17 18 19 20 21 23 24 25 25 26 27 29 30 31 32 34 35
4 2 2 2 2 2 1 3 5 6 7 8 10 11 12 14 15 16 18 19 18 16 16 16 17 17 14 9 5 3 1 1 3 3 3 4 6 8 9 9 10 10 10 10 10 10 10 10 9 9 8 8 7 7 7 7 7 7 7 7 8 9 10 11 12 13 14 15 15 16 17 17 18 19 20 21 22 24 26 27 29 30 32 34 36
6 2 1 3 4 3 2 3 4 5 6 8 9 10 11 13 14 15 17 19 20 18 17 17 19 17 14 9 5 2 1 2 4 6 5 4 4 4 5 6 7 7 7 7 8 8 8 8 8 7 7 6 6 6 6 5 5 5 5 5 5 6 7 8 9 9 10 11 11 12 13 14 15 17 19 20 22 24 25 27 29 31 33 35 38
7 4 1 2 4 5 5 5 6 7 8 8 9 10 11 12 14 15 17 19 20 19 18 19 19 17 13 8 5 2 1 1 4 7 8 7 5 4 3 3 3 4 4 4 5 6 6 6 6 6 5 5 5 4 3 3 2 2 2 3 3 4 5 5 6 7 8 9 10 11 12 14 15 17 19 20 22 24 26 28 31 33 36 38 41
8 6 3 1 2 4 6 6 7 9 10 10 10 11 12 13 14 15 16 18 19 19 19 19 18 16 12 8 4 2 3 3 4 6 8 8 7 6 5 3 2 0 1 2 3 3 4 4 4 4 4 4 4 3 2 2 2 2 3 3 3 4 4 5 6 6 7 8 10 11 12 14 16 18 20 22 24 26 29 31 34 36 38 40 42
8 7 5 4 3 3 4 6 7 9 10 11 11 11 12 12 13 13 15 17 18 18 18 18 17 14 11 7 4 4 4 5 5 5 6 8 8 7 6 4 3 2 1 1 1 2 2 3 3 4 3 3 2 2 3 3 3 3 2 3 3 4 4 5 5 6 7 9 10 12 14 16 18 20 22 25 27 29 31 33 35 38 39 41 42
9 7 5 5 4 4 4 5 6 8 9 10 10 10 10 10 11 12 14 15 16 17 16 16 16 14 12 9 7 7 7 8 9 9 8 7 6 5 5 4 3 2 2 2 2 3 3 3 3 2 2 2 2 3 3 2 2 2 2 3 3 4 4 5 6 7 9 11 13 15 17 19 21 23 25 27 29 31 33 35 36 38 40 41 42
9 7 6 5 5 5 4 4 5 7 8 9 9 9 9 9 9 10 11 12 14 15 15 15 16 15 13 12 11 10 10 11 11 12 12 11 9 7 6 4 4 4 4 4 4 4 4 3 2 2 2 2 1 1 0 1 2 2 2 3 3 4 5 6 8 9 11 13 15 17 19 21 22 24 26 28 30 32 34 36 37 39 40 41 41
10 8 7 6 6 5 5 5 6 7 8 8 7 7 7 6 7 8 9 11 13 13 13 14 15 15 14 13 12 12 12 12 12 12 12 11 10 9 7 6 5 5 5 5 5 4 4 3 2 1 0 1 1 1 1 2 2 2 3 4 4 5 7 8 10 12 14 15 17 19 20 22 24 26 28 30 32 33 35 36 37 38 39 39 40
11 9 8 6 6 5 5 5 6 7 7 6 6 5 4 5 7 8 9 11 12 12 12 12 13 14 14 13 13 12 11 11 11 11 10 9 9 8 7 7 6 6 6 5 4 4 3 2 1 2 2 2 2 2 2 3 3 3 4 5 6 7 9 11 12 14 15 17 18 20 21 23 25 27 29 31 32 34 35 36 37 37 38 38 38
12 11 10 9 8 8 7 7 7 6 5 4 3 3 5 7 8 8 9 10 11 10 10 10 10 11 12 12 12 12 11 11 10 10 9 9 9 8 8 7 6 5 5 4 4 3 3 3 3 2 3 3 2 3 3 3 4 4 5 6 8 10 11 12 14 15 16 18 20 21 23 25 27 29 30 32 33 34 35 36 36 37 37 37 37
12 11 10 10 10 10 9 8 7 5 3 3 3 5 7 8 8 8 8 9 10 9 9 9 9 9 9 9 10 10 10 10 10 9 8 8 8 8 7 7 6 6 5 5 4 4 3 3 3 3 3 3 3 3 4 4 4 5 6 8 10 11 12 14 15 17 18 19 21 22 24 26 28 30 31 33 34 35 36 36 36 36 36 36 36
12 11 10 10 9 9 8 8 6 4 3 4 6 7 8 8 8 7 8 9 9 8 7 8 8 8 8 8 8 9 9 9 9 9 9 9 8 8 8 7 6 6 5 4 4 3 3 3 3 3 3 3 3 4 4 4 5 6 8 10 11 12 14 15 16 18 19 20 22 24 25 27 29 31 33 35 36 37 37 37 36 36 36 35 35
Wind_Direction
296 295 294 292 291 290 290 290 290 287 283 281 281 279 276 270 263 260 261 263 265 265 264 262 260 258 258 256 255 254 254 254 255 253 247 241 238 236 235 234 233 231 231 232 234 234 234 234 234 234 235 237 239 241 243 244 245 244 243 244 243 239 236 234 234 236 237 237 237 236 235 235 236 238 241 244 248 251 252 252 252 252 252 253 254
295 294 292 290 289 287 286 286 287 286 284 281 280 280 278 274 268 263 261 263 264 265 265 262 260 258 257 257 256 254 254 253 253 252 248 243 240 237 236 235 233 231 230 230 231 233 234 234 234 234 233 234 235 237 240 241 242 242 242 242 242 240 237 234 231 232 234 235 235 235 235 235 235 238 241 245 248 250 251 252 252 253 253 253 254
294 293 291 289 287 284 282 283 284 285 284 281 279 277 275 273 269 264 262 261 263 265 265 262 261 260 259 259 257 254 253 252 252 250 247 243 240 238 236 235 234 232 230 229 229 231 232 233 233 234 234 234 233 233 235 236 237 238 238 238 238 236 235 233 230 229 231 233 234 234 235 234 233 236 240 244 248 250 250 252 252 253 254 254 255
293 292 291 289 286 283 280 280 282 283 283 281 279 276 274 272 269 265 262 260 261 263 264 263 261 260 258 258 257 255 253 252 251 249 246 243 239 237 235 234 233 232 230 229 228 229 230 231 232 233 234 235 234 233 233 233 233 233 234 235 234 233 231 230 228 228 229 231 232 233 234 233 233 236 241 245 249 250 250 250 251 252 253 254 255
291 289 288 287 285 282 279 278 279 281 282 282 279 276 274 273 270 267 263 260 259 260 262 262 260 258 257 256 256 256 254 252 250 249 247 244 240 237 235 233 232 231 230 229 229 229 229 229 230 232 233 235 236 236 235 235 234 233 232 232 232 232 231 230 229 229 229 230 231 233 233 233 235 241 245 248 250 250 249 249 250 251 252 254 255
289 287 286 284 283 281 278 276 277 278 281 282 280 276 274 272 271 267 264 261 260 259 260 261 261 259 257 255 255 255 254 252 250 249 247 245 242 239 236 233 231 230 230 229 230 229 229 229 229 230 232 233 235 236 237 237 237 236 235 234 233 232 232 233 233 233 232 231 231 233 235 237 241 246 248 248 248 247 247 248 248 250 252 253 254
287 287 285 283 281 279 277 276 275 276 279 280 279 276 273 271 270 267 264 262 261 260 259 260 260 259 257 255 254 254 254 252 249 247 246 244 242 239 237 234 231 229 228 228 229 230 230 230 230 231 232 233 233 234 236 237 238 238 237 237 237 236 235 235 236 236 236 234 234 235 238 242 245 247 248 246 245 245 246 248 250 252 253 253 252
284 283 282 280 278 278 279 277 275 274 276 277 277 275 272 269 267 265 262 261 260 259 259 258 258 257 255 254 253 251 250 249 247 245 244 242 241 238 236 234 233 231 229 228 228 229 230 231 232 232 233 234 234 234 235 236 237 238 237 238 238 238 238 238 238 239 239 238 238 239 240 242 244 245 245 245 246 247 248 249 251 252 253 252 250
284 279 276 275 275 276 278 278 275 274 274 274 274 274 271 268 266 263 260 259 258 258 257 257 257 256 253 251 250 248 247 246 246 245 243 241 240 238 235 233 233 233 232 230 229 229 230 231 233 234 235 236 237 237 237 237 238 238 238 238 238 238 239 239 240 240 241 240 240 240 240 240 241 243 244 246 248 249 249 250 250 251 251 250 250
289 281 274 271 271 273 275 274 273 273 273 273 273 274 271 267 263 262 260 258 258 257 256 256 256 256 254 252 250 249 247 245 246 246 244 243 241 240 238 235 234 233 233 234 233 232 231 231 232 234 235 236 238 239 240 241 241 241 241 241 240 240 239 240 240 241 242 242 242 242 241 241 242 243 244 245 247 248 249 249 250 250 250 250 249
292 286 276 268 267 270 270 269 270 272 273 273 272 271 268 262 259 260 260 260 261 261 259 258 256 255 254 253 252 252 250 248 246 246 246 245 244 243 241 239 238 236 235 235 236 235 235 234 234 234 235 236 237 239 240 242 243 243 244 244 244 243 243 242 242 242 243 243 244 244 244 244 245 245 245 246 246 247 247 248 248 248 249 248 248
291 288 279 268 265 266 266 264 266 269 269 269 268 266 264 260 259 259 261 263 265 265 263 260 257 254 253 252 252 252 251 249 246 246 246 246 245 245 244 243 242 241 240 238 237 237 237 237 237 237 237 237 238 238 239 241 242 243 244 245 245 246 246 245 245 245 245 245 245 245 245 245 246 246 246 246 246 246 245 245 245 246 246 246 245
290 285 280 270 264 263 262 261 261 264 266 266 265 262 260 259 259 261 263 266 268 267 265 261 258 256 254 253 252 251 251 250 248 247 247 247 247 247 247 247 245 245 244 242 241 239 239 238 238 238 238 238 238 239 239 239 240 241 242 243 245 246 246 247 247 247 247 247 247 247 247 247 248 248 247 247 246 245 244 243 244 244 243 242 242
296 287 282 275 265 259 259 259 259 260 263 263 260 258 257 258 261 265 269 271 271 269 265 262 259 258 256 254 252 251 250 249 249 248 248 249 250 250 250 249 248 247 246 246 245 244 243 241 240 239 239 239 238 238 239 239 239 239 240 241 242 244 245 246 247 248 248 249 249 249 249 249 249 249 248 247 246 245 243 242 242 242 241 239 239
310 301 292 279 263 257 258 257 256 257 257 257 255 254 256 260 266 272 275 275 273 269 266 263 261 258 256 255 253 252 250 249 249 249 250 250 251 251 252 252 251 250 249 249 249 248 247 246 244 243 243 242 241 241 241 240 240 240 240 240 241 241 242 244 245 246 247 248 248 249 249 248 248 247 246 246 245 243 241 240 240 240 239 239 240
339 332 320 295 267 260 258 254 253 255 255 253 252 255 261 268 274 276 275 272 269 266 264 263 261 259 256 254 252 250 249 249 249 250 251 252 252 253 253 253 253 252 251 250 249 249 248 248 247 246 246 245 245 246 245 244 243 242 241 241 241 241 241 242 243 243 244 245 246 247 247 247 247 247 245 244 242 240 239 238 237 238 239 241 242
12 16 17 7 314 267 257 256 258 256 252 253 260 269 275 276 274 269 264 261 260 259 259 258 258 259 258 257 256 254 253 253 253 253 254 254 255 255 256 255 255 254 253 251 250 249 249 248 248 248 247 247 248 248 248 247 246 245 244 244 244 243 242 242 242 242 243 243 244 244 245 245 246 246 245 244 242 239 237 235 235 235 237 239 241
24 29 31 32 25 339 287 269 258 255 263 273 280 281 276 267 260 257 256 258 261 263 264 264 265 265 265 264 264 263 262 261 261 261 262 262 261 261 261 260 259 258 256 255 253 252 252 251 250 249 249 249 249 249 250 249 248 248 247 247 246 246 245 244 243 242 242 242 242 242 242 243 245 245 246 245 243 240 236 234 233 233 234 235 236
25 29 31 33 33 29 26 352 299 300 305 298 281 267 261 258 259 262 265 269 272 274 276 276 273 270 267 265 263 263 266 269 271 272 272 273 273 272 270 268 265 262 259 257 254 253 252 251 251 251 250 249 248 248 249 250 251 250 250 249 248 248 247 245 244 243 242 242 242 241 241 242 243 245 246 246 244 240 236 234 234 235 235 235 235
25 29 32 36 38 36 31 22 15 15 358 284 261 262 268 273 278 284 289 288 281 277 62 72 69 252 257 261 262 266 272 278 282 283 283 284 286 288 286 281 274 266 260 256 253 250 248 248 248 247 245 242 241 244 247 250 251 251 252 251 250 249 248 246 245 244 242 241 241 240 240 240 241 242 243 244 244 241 237 236 237 238 238 237 237
26 30 33 34 34 34 34 38 45 52 53 33 20 6 358 17 50 75 89 100 107 106 99 87 70 40 284 286 292 292 289 288 288 288 288 288 288 290 291 288 281 272 261 253 248 245 242 240 237 235 234 235 239 246 250 252 253 252 251 250 249 248 247 245 244 242 241 240 239 238 237 237 237 238 239 241 243 240 236 236 238 239 238 238 239
23 27 31 34 39 43 47 54 60 63 67 70 70 73 81 91 99 105 107 108 108 106 103 95 71 27 343 324 317 308 300 297 296 297 297 295 291 287 284 279 272 266 259 251 244 239 235 232 232 235 239 243 247 251 253 254 253 249 246 246 246 245 243 242 240 238 237 235 234 233 232 232 233 234 235 238 238 236 234 235 236 237 237 237 237
26 31 37 42 47 49 55 65 74 78 78 79 83 89 95 100 103 104 104 101 98 93 83 57 14 343 326 319 316 311 305 304 310 312 307 301 294 286 277 268 259 252 247 241 236 233 233 236 239 244 249 252 252 252 252 253 251 245 242 241 241 238 236 234 232 230 228 227 225 225 226 226 227 228 229 231 233 232 232 234 234 234 234 234 234
37 39 39 41 47 58 72 79 81 82 83 87 93 97 98 97 95 92 87 79 66 48 22 358 337 319 308 305 306 306 302 305 316 317 309 303 298 287 272 258 252 248 243 237 235 236 237 239 245 250 251 251 250 248 247 247 243 236 234 235 234 232 230 226 221 218 217 215 213 214 215 216 218 220 222 225 227 229 229 230 231 231 231 233 234
37 35 36 45 65 78 81 79 77 80 88 94 96 95 93 92 90 84 75 62 44 22 2 347 331 317 309 306 305 305 306 314 322 317 313 317 323 314 285 260 254 255 249 241 237 232 227 233 246 245 235 226 226 229 233 230 223 223 228 227 224 224 221 215 209 206 202 199 199 201 204 205 208 213 217 221 224 225 225 225 226 228 230 232 235
30 34 50 74 85 83 77 73 76 86 95 96 92 90 89 89 84 74 61 47 31 16 4 356 347 340 335 323 311 308 312 326 329 319 320 342 4 10 6 346 293 260 236 224 216 207 206 225 242 224 202 200 216 227 229 223 216 216 218 213 210 211 209 203 198 193 189 187 189 193 196 199 204 210 216 220 221 221 221 223 225 227 230 232 233
31 52 79 89 86 78 72 73 82 94 97 91 84 81 79 74 66 54 41 29 18 8 1 360 358 355 352 348 338 329 329 335 330 320 322 351 5 10 18 27 30 119 187 193 204 211 214 221 220 207 201 214 239 241 234 230 222 202 184 185 193 196 192 187 182 179 178 180 185 189 194 200 206 211 215 217 218 220 221 223 225 227 228 230 233
52 79 91 90 82 73 69 72 83 92 91 82 76 74 71 66 57 45 33 25 22 20 18 20 19 15 15 23 41 64 52 4 340 332 333 345 353 7 27 45 61 81 100 123 174 208 207 203 205 208 212 228 243 236 228 225 209 183 175 175 176 177 177 174 171 171 173 176 182 189 196 202 208 212 215 218 220 221 221 221 222 225 229 235 241
79 88 90 87 80 71 66 70 80 88 86 77 72 68 61 56 51 43 35 37 43 43 40 38 37 38 43 49 56 64 55 36 27 13 355 348 7 46 59 65 76 86 90 91 92 102 143 180 201 213 213 188 172 175 178 176 171 169 168 165 160 160 163 165 166 169 173 178 186 194 200 206 211 215 218 219 218 217 218 221 226 232 238 243 246
85 85 85 82 74 67 67 75 85 88 81 71 64 57 51 49 46 41 40 45 47 43 40 40 40 44 51 54 54 55 56 57 62 58 39 29 46 61 68 74 84 93 99 102 105 109 120 139 150 147 140 136 135 139 145 149 153 157 158 158 158 157 159 163 168 172 177 183 189 197 203 208 212 214 214 213 214 218 224 230 235 239 241 243 244
82 80 78 74 71 72 77 85 88 83 73 65 58 52 50 50 49 45 45 47 47 42 37 37 39 43 50 57 61 63 64 66 70 71 70 70 68 63 65 73 79 83 91 104 114 117 122 130 124 119 125 131 132 139 147 148 149 152 154 157 160 161 161 163 167 173 180 186 190 194 198 202 206 208 211 216 222 228 232 234 236 238 240 242 243
78 77 76 75 75 79 82 84 82 75 65 62 60 56 56 57 58 57 54 50 49 45 37 32 35 41 48 57 65 69 68 69 72 75 76 78 77 74 71 71 73 74 76 86 96 97 98 107 107 98 103 112 122 136 148 150 146 146 149 154 159 163 164 165 168 175 185 193 197 201 204 208 212 216 221 226 230 232 233 234 237 240 243 245 247
79 78 79 78 78 80 80 77 73 66 61 62 61 58 55 52 51 51 49 45 44 44 38 30 30 37 43 48 56 64 68 69 68 68 70 71 71 71 70 69 69 72 76 81 85 83 82 84 88 89 95 104 116 131 144 149 147 144 147 152 157 161 165 169 173 179 187 194 200 206 211 216 220 224 227 230 232 234 236 239 242 246 248 250 252
83 81 80 81 80 78 74 69 65 62 60 58 55 52 50 49 48 45 42 37 36 36 35 31 29 31 35 40 45 50 57 64 67 65 64 65 62 63 65 66 65 68 74 78 81 81 81 84 89 95 100 105 112 122 133 141 145 145 149 155 162 166 170 174 179 185 191 197 203 209 215 220 225 229 232 234 236 237 240 244 247 250 252 254 256
85 84 83 84 81 74 68 64 62 60 57 53 49 46 47 49 52 52 49 42 36 33 31 29 28 27 27 30 38 44 51 61 70 72 71 70 67 66 68 70 68 67 69 75 79 81 82 85 91 99 105 108 111 115 121 128 135 140 145 153 162 170 176 182 187 194 200 206 211 216 221 225 228 231 233 235 237 240 243 247 251 254 256 258 260
88 87 85 83 77 69 63 60 58 54 51 48 46 45 45 46 50 54 56 50 41 32 27 23 21 21 21 20 26 40 51 58 67 73 73 73 75 77 77 78 79 79 78 79 83 87 90 91 94 99 104 108 110 112 116 120 126 132 138 146 156 166 175 183 190 197 203 209 214 219 223 227 230 234 237 240 243 247 251 254 256 258 259 260 261
95 92 89 83 74 64 56 52 51 48 47 46 44 44 43 42 42 44 47 48 43 34 27 21 15 13 15 16 12 22 46 60 66 70 71 70 75 81 83 83 86 90 92 93 93 95 99 101 102 103 106 110 112 115 118 121 124 129 136 144 154 164 175 185 195 203 210 216 221 226 231 235 238 242 245 248 251 253 255 256 257 257 258 259 261
106 104 99 93 82 64 48 43 44 43 42 42 40 39 37 34 32 30 30 33 34 30 26 22 14 5 2 7 11 11 24 64 73 74 77 79 80 82 85 86 86 88 92 94 96 98 100 103 106 110 114 118 121 124 128 132 137 144 153 161 170 180 188 197 204 211 218 223 228 232 235 239 242 244 246 248 250 251 252 254 256 258 261 264 267
98 125 127 118 103 82 51 38 36 35 33 31 29 27 25 23 22 20 18 19 20 18 16 17 12 1 355 359 10 17 10 225 156 104 89 87 86 87 87 85 84 83 84 85 88 92 95 99 104 111 116 123 130 137 143 149 156 166 175 183 191 199 205 211 215 219 223 227 230 232 235 237 239 242 244 247 250 253 257 260 264 267 270 272 274
57 118 169 177 172 158 71 21 20 21 19 17 14 12 10 8 8 8 7 8 9 7 6 7 6 0 356 356 6 21 23 221 203 176 134 105 96 92 89 85 81 80 80 79 78 80 82 87 94 103 112 122 131 139 147 156 165 175 182 189 197 204 210 215 219 222 225 227 229 231 234 238 242 247 252 257 262 266 269 271 273 275 276 277 278
38 59 175 212 221 229 255 295 327 345 354 358 358 355 352 353 355 356 356 358 0 0 360 1 2 360 358 359 5 19 39 212 206 195 183 169 144 118 102 90 81 76 73 73 71 68 66 67 75 87 99 111 121 130 140 147 155 164 175 185 196 203 208 211 214 217 222 227 233 240 247 254 260 265 268 271 273 274 276 277 279 280 281 282 283
24 28 45 225 236 248 261 275 293 312 322 329 332 333 333 337 342 346 348 351 354 356 357 360 1 0 359 0 3 23 102 180 201 200 195 189 183 175 158 129 100 76 64 60 57 53 50 50 58 72 85 95 100 104 103 105 115 137 162 180 191 198 204 210 218 228 239 249 258 265 269 272 274 275 277 278 280 282 284 285 287 287 288 288 288
15 12 9 338 261 255 261 272 285 295 301 306 311 316 320 326 333 339 344 348 352 354 357 360 2 3 4 8 22 86 124 138 171 189 196 199 200 199 195 188 182 140 35 30 28 31 37 43 52 61 66 67 71 76 80 98 134 154 165 179 196 214 230 243 253 262 269 274 278 279 281 282 283 285 288 289 291 292 292 292 293 292 292 292 291
14 11 6 357 322 285 277 280 284 287 293 300 304 309 316 325 332 339 344 348 352 355 359 4 9 12 17 27 52 87 101 101 108 136 168 186 197 202 205 211 223 243 280 323 1 38 56 60 57 53 52 59 83 120 140 149 159 171 193 224 249 265 273 280 286 288 288 289 290 291 292 294 295 297 298 298 298 298 298 297 297 297 296 296 295
10 12 7 359 349 338 321 301 290 286 290 296 303 311 320 329 337 342 346 351 356 1 8 16 22 27 35 48 64 79 85 84 84 92 109 130 154 173 184 193 199 185 151 122 98 83 75 66 56 57 83 119 133 140 146 162 199 245 270 284 294 301 303 303 302 300 299 300 301 302 303 304 304 304 304 304 304 304 303 303 302 302 301 300 299
2 7 5 356 353 354 346 325 305 295 294 297 306 315 323 331 342 351 358 4 7 11 21 31 35 38 45 56 68 78 82 82 82 84 88 93 101 110 118 126 137 135 121 105 92 81 76 75 81 100 124 134 134 142 245 291 300 309 314 316 316 313 309 307 306 307 309 310 310 310 310 310 310 310 310 310 310 310 309 308 307 305 304 303 301
359 4 4 0 357 354 346 330 312 305 309 317 324 328 332 347 6 18 21 18 17 21 33 42 45 46 50 58 68 78 83 85 86 87 88 89 93 98 101 104 103 97 89 83 80 77 78 81 85 80 51 1 357 357 1 354 346 334 324 317 315 313 313 314 315 316 316 316 315 315 316 316 317 317 317 316 315 314 313 311 309 308 306 305 303
4 3 0 357 355 350 342 329 318 316 323 334 342 351 16 45 51 45 33 23 22 29 38 45 50 55 58 61 66 73 77 80 82 82 82 84 86 88 89 88 84 80 77 74 72 70 67 57 35 22 24 26 24 14 0 343 330 323 319 319 320 321 321 322 321 320 320 320 321 322 323 324 323 322 321 320 319 317 316 314 312 310 308 306 305
5 1 355 349 347 346 343 341 341 344 350 357 16 62 82 80 69 51 34 25 25 31 35 41 51 61 65 67 70 73 74 75 77 77 76 77 78 78 79 79 77 74 70 65 62 59 54 51 46 40 30 18 0 342 331 327 324 325 327 325 326 326 325 324 324 325 325 327 328 329 329 328 326 325 324 324 323 322 320 318 316 313 311 308 306
3 0 355 350 348 347 350 356 5 16 35 72 99 105 98 86 69 49 32 24 24 27 31 37 48 59 66 71 75 77 77 78 79 78 77 76 74 73 73 71 70 69 67 64 61 59 52 43 33 16 359 347 336 330 330 328 326 328 328 327 327 328 328 328 329 331 332 333 333 332 330 329 328 328 329 329 328 327 324 322 319 316 313 310 308
3 1 358 356 354 353 358 9 20 36 74 108 117 113 101 85 65 43 26 20 20 22 27 38 50 58 65 70 74 75 77 78 78 78 78 77 75 74 72 69 66 64 60 54 47 40 26 14 4 353 344 338 332 328 327 325 325 327 329 329 330 331 332 333 334 335 335 335 334 332 331 331 332 333 334 333 332 330 327 324 321 318 314 311 310
Height
5302 5301 5300 5299 5298 5296 5295 5294 5293 5292 5292 5292 5291 5291 5291 5291 5291 5291 5291 5292 5292 5292 5292 5293 5293 5293 5294 5295 5296 5297 5297 5298 5298 5298 5300 5304 5307 5312 5316 5320 5327 5335 5342 5348 5355 5362 5369 5375 5382 5388 5393 5396 5400 5405 5410 5415 5419 5423 5428 5433 5438 5443 5448 5453 5459 5464 5469 5474 5478 5482 5486 5488 5491 5494 5498 5502 5505 5508 5511 5514 5516 5518 5521 5524 5527
5296 5295 5294 5293 5292 5290 5289 5288 5287 5287 5286 5286 5286 5285 5285 5285 5285 5285 5286 5286 5286 5287 5287 5288 5287 5288 5289 5290 5291 5292 5293 5293 5294 5294 5295 5298 5300 5304 5307 5311 5317 5324 5330 5337 5344 5350 5357 5364 5371 5378 5382 5386 5391 5395 5399 5405 5409 5413 5418 5423 5428 5433 5436 5442 5448 5452 5457 5464 5468 5473 5477 5479 5483 5487 5489 5493 5496 5499 5502 5505 5507 5510 5513 5515 5518
5289 5287 5287 5286 5286 5285 5283 5282 5281 5281 5280 5280 5280 5280 5280 5279 5279 5280 5280 5281 5281 5282 5282 5283 5283 5283 5284 5286 5287 5287 5288 5289 5289 5290 5291 5293 5295 5298 5301 5304 5309 5315 5320 5327 5333 5338 5345 5352 5360 5366 5371 5375 5381 5386 5390 5394 5398 5403 5408 5413 5418 5422 5425 5430 5435 5439 5445 5452 5458 5463 5467 5471 5474 5478 5480 5483 5486 5489 5494 5497 5499 5502 5505 5507 5510
5283 5281 5279 5279 5279 5279 5278 5276 5275 5274 5274 5274 5274 5274 5274 5274 5273 5274 5275 5275 5276 5276 5277 5278 5279 5279 5280 5281 5282 5282 5283 5284 5285 5286 5288 5289 5290 5292 5295 5299 5303 5307 5312 5318 5323 5328 5334 5342 5349 5355 5359 5365 5371 5376 5380 5385 5389 5393 5398 5403 5408 5413 5416 5419 5423 5427 5433 5440 5447 5453 5457 5460 5464 5467 5470 5473 5477 5481 5485 5488 5491 5494 5497 5499 5502
5275 5274 5272 5272 5272 5271 5271 5270 5269 5268 5268 5269 5269 5268 5268 5268 5268 5268 5269 5270 5271 5271 5272 5273 5274 5274 5275 5276 5277 5278 5279 5280 5281 5282 5284 5285 5286 5288 5290 5293 5297 5301 5305 5309 5314 5319 5325 5332 5339 5344 5349 5356 5363 5367 5371 5376 5380 5384 5388 5393 5398 5403 5407 5409 5413 5416 5422 5429 5435 5441 5446 5449 5453 5457 5461 5465 5468 5472 5476 5479 5482 5485 5488 5491 5494
5267 5266 5265 5264 5264 5264 5264 5263 5263 5262 5262 5263 5263 5263 5263 5263 5263 5263 5263 5264 5265 5266 5267 5268 5269 5270 5271 5272 5272 5273 5275 5276 5277 5278 5280 5281 5283 5284 5286 5289 5292 5295 5298 5302 5306 5311 5317 5323 5329 5333 5339 5347 5353 5357 5361 5365 5369 5374 5379 5383 5388 5392 5396 5399 5403 5408 5414 5419 5425 5430 5435 5440 5444 5448 5453 5457 5460 5462 5466 5470 5473 5476 5480 5483 5485
5259 5258 5258 5257 5257 5256 5256 5257 5257 5257 5257 5257 5257 5257 5258 5258 5258 5258 5258 5259 5260 5261 5262 5263 5264 5265 5267 5268 5268 5269 5270 5271 5273 5275 5276 5277 5279 5281 5282 5284 5287 5289 5292 5295 5299 5304 5309 5314 5319 5324 5330 5337 5343 5347 5351 5355 5359 5363 5368 5373 5376 5380 5384 5389 5393 5397 5404 5410 5415 5420 5426 5430 5434 5438 5443 5446 5449 5453 5457 5461 5465 5469 5471 5473 5475
5252 5251 5250 5250 5249 5248 5248 5250 5251 5250 5251 5251 5251 5252 5252 5253 5253 5253 5254 5254 5255 5256 5257 5258 5259 5261 5262 5264 5264 5265 5266 5267 5269 5271 5272 5273 5274 5276 5278 5280 5282 5284 5286 5289 5293 5297 5302 5306 5311 5316 5322 5328 5333 5337 5341 5345 5349 5353 5358 5362 5365 5369 5374 5379 5383 5386 5393 5399 5405 5410 5414 5418 5423 5428 5432 5436 5442 5448 5452 5454 5457 5459 5461 5462 5465
5243 5242 5242 5242 5242 5241 5242 5243 5244 5244 5244 5245 5245 5246 5247 5247 5248 5249 5249 5249 5250 5251 5252 5253 5254 5256 5257 5258 5259 5260 5262 5263 5265 5266 5268 5269 5270 5272 5274 5276 5277 5279 5282 5284 5287 5291 5295 5299 5304 5309 5314 5318 5322 5326 5330 5335 5340 5344 5349 5352 5356 5360 5364 5369 5372 5376 5381 5388 5395 5400 5404 5408 5414 5418 5423 5429 5436 5440 5443 5444 5446 5448 5450 5452 5455
5233 5233 5233 5234 5234 5234 5236 5237 5237 5238 5239 5239 5240 5241 5242 5243 5243 5243 5244 5244 5245 5246 5247 5248 5249 5250 5252 5253 5254 5255 5257 5260 5261 5262 5263 5265 5267 5268 5269 5271 5273 5275 5278 5280 5282 5286 5289 5292 5296 5300 5304 5308 5312 5317 5321 5325 5330 5336 5340 5343 5346 5350 5355 5358 5362 5366 5371 5377 5384 5390 5395 5400 5405 5410 5415 5421 5425 5427 5430 5434 5436 5437 5439 5442 5445
5224 5223 5224 5225 5225 5227 5229 5231 5231 5232 5234 5234 5235 5236 5237 5237 5238 5238 5239 5240 5240 5241 5242 5243 5244 5245 5246 5248 5249 5251 5253 5255 5257 5257 5259 5261 5262 5263 5265 5267 5269 5271 5274 5276 5278 5281 5283 5285 5288 5291 5295 5299 5303 5307 5311 5315 5320 5325 5329 5332 5336 5340 5345 5348 5353 5357 5361 5367 5374 5379 5385 5391 5397 5400 5405 5409 5413 5416 5421 5424 5425 5426 5429 5432 5436
5215 5215 5216 5217 5217 5220 5223 5225 5226 5227 5229 5229 5230 5231 5231 5232 5233 5234 5235 5235 5236 5237 5238 5239 5239 5240 5241 5243 5244 5246 5248 5250 5251 5252 5254 5255 5257 5258 5259 5262 5265 5267 5269 5271 5273 5276 5278 5280 5282 5285 5288 5291 5294 5298 5302 5306 5310 5314 5318 5321 5325 5330 5334 5338 5343 5348 5351 5356 5362 5368 5375 5382 5386 5389 5394 5399 5403 5406 5410 5412 5414 5417 5420 5423 5426
5207 5208 5208 5209 5211 5214 5218 5220 5221 5223 5224 5225 5225 5226 5227 5228 5229 5230 5231 5231 5232 5232 5233 5234 5234 5235 5236 5238 5239 5240 5242 5244 5245 5247 5248 5250 5251 5253 5255 5257 5260 5262 5263 5266 5268 5270 5272 5274 5277 5279 5281 5284 5286 5289 5293 5296 5300 5303 5307 5310 5314 5319 5323 5328 5333 5337 5341 5345 5350 5357 5365 5371 5374 5379 5385 5388 5391 5394 5398 5401 5405 5407 5410 5413 5417
5202 5202 5203 5204 5206 5210 5213 5215 5217 5219 5220 5221 5222 5222 5223 5224 5225 5226 5226 5227 5227 5228 5228 5229 5230 5231 5232 5233 5234 5236 5237 5238 5240 5242 5243 5244 5246 5248 5249 5251 5253 5255 5257 5260 5261 5263 5266 5268 5270 5273 5275 5277 5279 5282 5285 5287 5290 5293 5296 5300 5305 5309 5313 5317 5321 5325 5329 5333 5338 5346 5354 5358 5361 5367 5371 5373 5378 5384 5387 5391 5394 5397 5399 5402 5404
5199 5199 5199 5201 5204 5207 5209 5212 5214 5215 5217 5217 5218 5219 5220 5221 5221 5222 5222 5222 5223 5223 5224 5225 5226 5227 5228 5229 5230 5231 5232 5233 5235 5236 5238 5239 5240 5242 5243 5244 5247 5249 5251 5253 5254 5256 5258 5260 5263 5265 5267 5269 5272 5274 5276 5278 5280 5284 5288 5292 5296 5300 5304 5307 5311 5314 5317 5321 5327 5334 5338 5341 5346 5353 5357 5360 5366 5372 5375 5378 5381 5384 5387 5390 5394
5198 5197 5198 5200 5202 5205 5207 5209 5211 5212 5214 5215 5216 5217 5217 5218 5218 5218 5219 5219 5219 5220 5220 5221 5222 5223 5224 5224 5225 5226 5227 5228 5230 5231 5232 5233 5235 5236 5237 5238 5240 5242 5244 5246 5247 5249 5250 5252 5254 5257 5259 5262 5264 5265 5266 5268 5271 5274 5279 5283 5287 5291 5295 5299 5302 5304 5307 5311 5317 5321 5325 5328 5333 5339 5344 5348 5353 5358 5362 5366 5369 5373 5377 5381 5386
5199 5198 5199 5201 5202 5204 5206 5208 5209 5210 5212 5213 5214 5215 5215 5215 5215 5215 5216 5216 5217 5217 5218 5218 5219 5219 5220 5221 5221 5222 5223 5224 5225 5226 5227 5228 5229 5230 5231 5232 5233 5235 5236 5238 5239 5240 5242 5244 5246 5248 5251 5254 5255 5256 5256 5257 5261 5265 5270 5274 5277 5281 5286 5289 5292 5294 5298 5302 5306 5310 5314 5318 5322 5327 5332 5336 5341 5346 5350 5354 5359 5364 5367 5372 5377
5201 5201 5201 5202 5203 5204 5205 5207 5208 5209 5210 5211 5212 5213 5213 5213 5213 5213 5214 5214 5215 5215 5215 5216 5216 5217 5217 5218 5218 5218 5219 5220 5221 5222 5222 5223 5224 5225 5225 5226 5226 5227 5228 5229 5231 5232 5234 5236 5238 5240 5242 5245 5246 5246 5246 5248 5252 5257 5261 5264 5267 5271 5275 5278 5281 5285 5288 5292 5296 5301 5305 5309 5313 5318 5323 5327 5331 5335 5340 5345 5350 5354 5357 5362 5367
5204 5203 5203 5203 5204 5205 5206 5207 5208 5209 5209 5210 5211 5211 5212 5212 5212 5212 5212 5212 5213 5213 5213 5214 5214 5215 5215 5216 5216 5216 5216 5217 5217 5218 5218 5218 5219 5219 5219 5219 5220 5220 5220 5221 5222 5224 5225 5227 5229 5231 5234 5236 5236 5237 5238 5240 5244 5249 5251 5253 5256 5261 5264 5267 5269 5273 5277 5282 5287 5292 5296 5300 5305 5309 5314 5318 5322 5326 5331 5337 5342 5345 5349 5353 5356
5206 5205 5205 5205 5205 5206 5206 5207 5208 5208 5209 5210 5210 5210 5210 5211 5211 5211 5211 5211 5212 5212 5213 5213 5214 5214 5214 5215 5215 5215 5215 5215 5215 5215 5215 5215 5214 5215 5214 5214 5214 5213 5213 5213 5214 5216 5218 5220 5222 5224 5226 5227 5228 5230 5231 5233 5236 5240 5242 5244 5247 5250 5252 5254 5258 5262 5266 5272 5277 5282 5287 5292 5296 5301 5306 5310 5314 5318 5324 5330 5334 5338 5342 5345 5349
5208 5208 5207 5207 5207 5207 5207 5208 5208 5208 5209 5209 5209 5209 5210 5210 5210 5211 5211 5212 5212 5213 5213 5214 5214 5214 5214 5214 5214 5214 5214 5214 5214 5213 5213 5212 5212 5211 5211 5210 5210 5209 5208 5208 5208 5210 5212 5214 5216 5218 5219 5221 5223 5225 5227 5228 5229 5233 5235 5236 5237 5239 5241 5244 5247 5251 5256 5262 5268 5273 5278 5283 5288 5294 5299 5304 5307 5312 5317 5322 5326 5331 5335 5339 5343
5210 5209 5209 5208 5208 5208 5208 5208 5208 5208 5208 5209 5209 5209 5210 5210 5211 5212 5212 5213 5213 5214 5214 5214 5214 5214 5213 5213 5213 5212 5212 5212 5212 5211 5211 5210 5209 5209 5208 5208 5207 5206 5206 5206 5206 5208 5209 5211 5213 5214 5216 5218 5220 5221 5222 5222 5223 5226 5228 5227 5228 5230 5232 5235 5238 5242 5247 5253 5259 5264 5270 5276 5282 5287 5293 5297 5301 5305 5310 5315 5320 5325 5330 5334 5338
5212 5211 5210 5210 5210 5210 5209 5209 5209 5209 5209 5209 5210 5211 5211 5212 5212 5213 5213 5214 5214 5214 5214 5214 5213 5213 5212 5212 5212 5211 5211 5210 5210 5210 5209 5208 5207 5206 5205 5205 5205 5204 5204 5205 5205 5206 5207 5209 5210 5211 5213 5214 5215 5216 5216 5216 5217 5219 5220 5219 5220 5223 5225 5227 5230 5235 5240 5245 5251 5257 5263 5270 5277 5282 5287 5291 5295 5300 5305 5310 5315 5320 5325 5329 5332
5214 5213 5212 5212 5212 5211 5211 5211 5211 5211 5211 5211 5212 5212 5213 5213 5214 5214 5214 5214 5214 5214 5214 5214 5213 5213 5212 5211 5210 5210 5210 5209 5209 5208 5207 5206 5204 5203 5202 5202 5202 5202 5202 5203 5203 5204 5205 5207 5208 5208 5209 5210 5210 5211 5211 5211 5211 5212 5213 5213 5215 5218 5219 5222 5226 5231 5236 5241 5247 5253 5260 5267 5273 5278 5282 5287 5292 5297 5301 5306 5311 5315 5319 5323 5326
5215 5215 5214 5213 5213 5213 5213 5212 5212 5213 5213 5213 5214 5214 5215 5215 5215 5215 5215 5215 5215 5214 5214 5213 5212 5212 5211 5210 5209 5209 5208 5208 5207 5206 5205 5204 5202 5200 5199 5199 5199 5200 5200 5201 5202 5203 5204 5205 5205 5206 5206 5207 5207 5207 5208 5208 5208 5209 5209 5210 5212 5215 5217 5220 5224 5228 5233 5239 5245 5251 5257 5263 5268 5274 5279 5284 5289 5294 5298 5303 5307 5310 5314 5318 5321
5217 5216 5215 5215 5215 5215 5215 5215 5215 5215 5215 5215 5216 5216 5216 5216 5216 5216 5216 5215 5215 5214 5213 5212 5211 5210 5209 5209 5208 5207 5207 5206 5206 5205 5204 5202 5201 5199 5198 5198 5198 5198 5199 5199 5200 5201 5202 5203 5203 5203 5204 5205 5205 5206 5207 5207 5207 5207 5208 5209 5211 5213 5215 5219 5223 5228 5233 5238 5244 5250 5255 5261 5266 5272 5278 5282 5287 5291 5295 5299 5302 5306 5309 5313 5315
5218 5217 5217 5217 5217 5217 5217 5217 5217 5217 5217 5217 5217 5217 5217 5217 5217 5217 5216 5216 5215 5214 5213 5212 5211 5209 5208 5207 5206 5206 5206 5205 5205 5204 5203 5202 5201 5200 5199 5199 5198 5198 5199 5199 5200 5200 5201 5202 5202 5202 5203 5204 5204 5205 5206 5206 5206 5207 5208 5210 5211 5213 5215 5219 5223 5228 5233 5239 5244 5249 5255 5260 5266 5271 5276 5280 5284 5287 5291 5295 5298 5302 5305 5307 5310
5218 5218 5219 5219 5219 5219 5219 5218 5219 5219 5219 5219 5219 5219 5219 5219 5218 5218 5217 5217 5216 5215 5214 5212 5211 5209 5208 5207 5206 5205 5205 5204 5204 5204 5203 5202 5202 5201 5200 5199 5199 5198 5199 5199 5199 5200 5200 5201 5201 5202 5203 5203 5203 5204 5205 5206 5207 5207 5209 5210 5212 5214 5217 5221 5225 5229 5234 5239 5244 5249 5255 5260 5265 5269 5273 5277 5280 5284 5287 5291 5294 5297 5300 5302 5304
5220 5220 5220 5220 5221 5220 5220 5220 5221 5221 5221 5221 5221 5220 5220 5220 5219 5219 5218 5218 5217 5215 5214 5213 5211 5210 5208 5207 5206 5205 5205 5204 5204 5203 5203 5202 5202 5201 5200 5200 5199 5199 5199 5199 5200 5200 5201 5201 5202 5202 5203 5203 5203 5204 5205 5206 5207 5208 5209 5211 5213 5217 5220 5224 5228 5232 5236 5240 5245 5249 5254 5259 5263 5267 5271 5274 5278 5281 5284 5288 5290 5293 5295 5297 5299
5222 5223 5222 5222 5222 5222 5222 5222 5222 5223 5223 5222 5222 5222 5221 5220 5220 5219 5219 5218 5216 5215 5214 5213 5212 5210 5209 5208 5207 5206 5205 5205 5204 5204 5203 5202 5202 5201 5201 5200 5200 5200 5200 5200 5200 5201 5201 5202 5202 5203 5203 5203 5204 5205 5205 5206 5207 5209 5211 5213 5216 5219 5222 5225 5229 5233 5237 5241 5245 5250 5254 5258 5261 5265 5269 5272 5276 5278 5281 5284 5286 5289 5291 5293 5294
5225 5225 5225 5224 5224 5224 5224 5224 5224 5224 5224 5224 5223 5223 5222 5222 5221 5220 5219 5218 5217 5216 5215 5214 5213 5212 5210 5209 5209 5208 5207 5206 5205 5204 5204 5203 5203 5202 5202 5202 5201 5201 5201 5201 5201 5201 5202 5202 5203 5203 5204 5205 5206 5206 5207 5208 5209 5210 5212 5215 5217 5220 5223 5227 5230 5234 5238 5242 5246 5250 5253 5257 5261 5264 5267 5270 5273 5276 5278 5280 5282 5284 5286 5287 5289
5227 5227 5227 5226 5226 5226 5226 5226 5226 5226 5226 5225 5225 5224 5224 5223 5223 5221 5220 5218 5217 5216 5216 5215 5214 5213 5212 5211 5210 5209 5209 5208 5207 5206 5205 5205 5204 5204 5203 5203 5203 5202 5202 5202 5202 5202 5203 5203 5204 5205 5205 5206 5207 5208 5208 5210 5211 5212 5214 5216 5219 5222 5225 5228 5232 5235 5239 5242 5246 5250 5253 5256 5260 5263 5265 5268 5270 5272 5274 5276 5278 5279 5281 5281 5282
5230 5229 5229 5229 5228 5228 5228 5228 5228 5228 5228 5227 5226 5226 5225 5224 5223 5221 5220 5219 5218 5217 5217 5216 5215 5214 5214 5213 5212 5211 5211 5210 5209 5208 5207 5207 5206 5206 5205 5205 5205 5205 5204 5204 5204 5204 5204 5204 5205 5206 5206 5207 5208 5209 5210 5212 5213 5215 5216 5218 5221 5224 5227 5230 5233 5237 5240 5243 5247 5250 5253 5255 5258 5261 5263 5265 5267 5269 5270 5272 5273 5274 5275 5275 5276
5232 5232 5232 5231 5231 5231 5231 5231 5230 5230 5229 5229 5228 5227 5225 5224 5223 5222 5221 5220 5219 5219 5218 5217 5217 5215 5215 5214 5213 5213 5212 5212 5211 5210 5210 5209 5208 5208 5207 5207 5207 5207 5207 5206 5206 5206 5206 5206 5207 5207 5208 5209 5210 5211 5213 5214 5216 5217 5219 5221 5223 5226 5229 5232 5235 5238 5241 5244 5246 5249 5251 5254 5256 5258 5260 5262 5263 5265 5266 5267 5268 5268 5269 5269 5270
5234 5234 5234 5234 5233 5233 5233 5232 5232 5232 5231 5230 5229 5228 5227 5226 5225 5225 5224 5223 5222 5221 5220 5219 5218 5217 5216 5215 5215 5214 5214 5213 5212 5212 5212 5211 5211 5210 5210 5209 5209 5209 5209 5209 5208 5209 5209 5209 5209 5210 5211 5212 5213 5214 5215 5216 5218 5220 5221 5223 5226 5228 5231 5233 5236 5238 5241 5243 5245 5247 5250 5251 5253 5255 5257 5258 5259 5261 5262 5262 5263 5263 5264 5264 5264
5237 5237 5236 5236 5236 5235 5235 5234 5234 5233 5233 5232 5231 5230 5229 5228 5228 5227 5226 5226 5224 5223 5221 5220 5219 5218 5217 5216 5215 5215 5215 5214 5214 5213 5213 5213 5212 5212 5212 5211 5211 5211 5211 5211 5211 5211 5211 5212 5212 5213 5214 5214 5215 5216 5218 5219 5220 5222 5224 5226 5228 5230 5232 5234 5236 5238 5240 5242 5244 5246 5248 5249 5251 5252 5254 5255 5256 5256 5257 5258 5258 5258 5258 5258 5258
5238 5238 5238 5238 5237 5237 5236 5236 5235 5235 5234 5234 5233 5232 5231 5230 5229 5228 5228 5227 5225 5224 5222 5221 5219 5218 5217 5216 5216 5216 5215 5215 5215 5215 5214 5214 5214 5214 5213 5213 5213 5213 5213 5213 5213 5213 5214 5214 5215 5215 5216 5217 5218 5219 5220 5221 5223 5224 5226 5227 5229 5231 5232 5234 5236 5238 5239 5241 5243 5244 5246 5247 5248 5249 5250 5251 5252 5252 5253 5253 5253 5253 5253 5252 5252
5240 5240 5239 5239 5239 5238 5238 5237 5237 5236 5236 5235 5234 5233 5232 5231 5230 5229 5228 5227 5226 5225 5224 5222 5220 5218 5217 5216 5216 5215 5216 5216 5216 5216 5216 5215 5215 5215 5215 5215 5215 5215 5215 5215 5215 5215 5216 5216 5217 5218 5218 5219 5220 5221 5222 5223 5224 5226 5227 5228 5230 5231 5233 5234 5235 5237 5239 5240 5241 5243 5244 5245 5246 5247 5247 5248 5248 5248 5248 5248 5248 5247 5247 5246 5246
5241 5241 5240 5240 5240 5239 5239 5238 5238 5237 5237 5236 5235 5234 5233 5232 5231 5230 5229 5228 5227 5225 5224 5222 5221 5219 5217 5216 5215 5215 5215 5216 5216 5216 5216 5216 5216 5216 5216 5216 5216 5217 5217 5217 5217 5218 5218 5218 5219 5219 5220 5221 5222 5223 5223 5224 5225 5227 5228 5229 5230 5231 5232 5234 5235 5236 5238 5239 5240 5241 5241 5242 5243 5243 5243 5244 5244 5244 5244 5243 5243 5242 5242 5241 5240
5241 5241 5241 5241 5240 5240 5240 5239 5239 5238 5238 5237 5236 5235 5234 5233 5232 5231 5230 5228 5227 5225 5224 5222 5221 5219 5217 5216 5215 5215 5215 5215 5216 5216 5217 5217 5217 5217 5218 5218 5218 5218 5218 5219 5219 5219 5219 5220 5220 5221 5221 5222 5222 5223 5224 5225 5226 5227 5228 5229 5230 5231 5232 5233 5234 5235 5236 5236 5237 5238 5238 5239 5239 5239 5240 5240 5240 5240 5239 5239 5238 5237 5236 5235 5234
5242 5241 5241 5241 5241 5241 5240 5240 5239 5239 5238 5238 5237 5236 5235 5234 5232 5231 5230 5229 5227 5225 5224 5222 5220 5219 5217 5216 5215 5215 5215 5215 5215 5216 5217 5217 5218 5218 5219 5219 5220 5220 5220 5220 5220 5220 5220 5221 5221 5221 5222 5222 5223 5223 5224 5225 5226 5226 5227 5228 5229 5230 5230 5231 5232 5233 5233 5234 5235 5235 5235 5236 5236 5236 5236 5236 5236 5236 5235 5234 5233 5232 5231 5229 5228
5243 5242 5241 5241 5241 5241 5240 5240 5240 5239 5238 5238 5237 5236 5235 5234 5233 5232 5230 5229 5227 5225 5224 5222 5220 5218 5217 5216 5215 5215 5214 5214 5215 5215 5216 5217 5218 5218 5219 5220 5220 5220 5220 5221 5221 5221 5221 5221 5221 5221 5222 5222 5223 5223 5224 5224 5225 5225 5226 5227 5227 5228 5229 5230 5230 5231 5231 5232 5232 5233 5233 5233 5234 5234 5233 5233 5232 5231 5230 5229 5228 5226 5225 5223 5221
5243 5242 5242 5241 5241 5241 5240 5240 5240 5239 5238 5237 5237 5236 5235 5234 5233 5232 5230 5229 5227 5226 5224 5222 5220 5218 5217 5215 5215 5214 5214 5214 5214 5215 5216 5217 5218 5218 5219 5220 5220 5221 5221 5221 5221 5221 5221 5221 5221 5221 5221 5222 5222 5222 5223 5224 5224 5225 5226 5226 5227 5228 5228 5229 5229 5229 5230 5230 5230 5231 5231 5231 5231 5230 5230 5229 5228 5227 5226 5224 5223 5221 5218 5216 5214
5244 5243 5242 5242 5241 5240 5240 5240 5239 5238 5238 5237 5236 5235 5235 5234 5233 5232 5231 5229 5228 5226 5224 5222 5220 5218 5217 5216 5215 5215 5215 5215 5215 5215 5216 5217 5218 5218 5219 5220 5220 5221 5221 5221 5221 5221 5221 5221 5221 5221 5221 5221 5222 5222 5223 5224 5224 5225 5226 5226 5226 5227 5227 5227 5228 5228 5228 5228 5229 5228 5228 5228 5227 5227 5226 5225 5224 5222 5220 5219 5217 5214 5211 5209 5206
5244 5244 5243 5242 5241 5240 5240 5239 5239 5238 5237 5236 5236 5235 5235 5234 5233 5232 5231 5230 5228 5226 5225 5223 5221 5219 5218 5216 5216 5216 5216 5216 5216 5216 5216 5217 5218 5218 5219 5220 5220 5220 5220 5220 5220 5221 5221 5221 5221 5221 5221 5222 5222 5223 5223 5224 5224 5225 5225 5225 5225 5226 5226 5226 5226 5227 5226 5227 5226 5226 5225 5225 5224 5223 5222 5220 5219 5217 5215 5212 5210 5207 5204 5202 5199
5244 5244 5243 5242 5241 5240 5240 5239 5238 5237 5236 5236 5235 5235 5234 5234 5233 5232 5231 5230 5229 5227 5225 5224 5222 5220 5219 5218 5217 5217 5217 5217 5217 5217 5218 5218 5218 5219 5219 5220 5220 5220 5220 5220 5220 5221 5221 5221 5222 5222 5222 5222 5223 5223 5223 5224 5224 5224 5224 5224 5225 5225 5225 5225 5225 5225 5225 5225 5224 5223 5223 5222 5220 5219 5218 5216 5214 5211 5209 5206 5204 5201 5198 5195 5192
5245 5244 5243 5242 5241 5241 5240 5239 5238 5237 5236 5236 5235 5235 5234 5234 5233 5233 5232 5231 5230 5228 5227 5225 5224 5222 5221 5220 5219 5219 5219 5219 5219 5219 5219 5219 5219 5220 5220 5220 5220 5220 5221 5221 5221 5221 5221 5222 5222 5222 5222 5223 5223 5223 5223 5223 5223 5224 5224 5224 5224 5224 5224 5224 5224 5223 5223 5222 5221 5220 5219 5218 5216 5215 5213 5211 5208 5206 5203 5200 5198 5194 5191 5188 5185
5245 5244 5243 5242 5241 5240 5239 5238 5237 5237 5236 5236 5235 5235 5234 5234 5233 5233 5232 5231 5230 5229 5228 5227 5225 5224 5223 5222 5222 5221 5221 5221 5221 5220 5220 5221 5221 5221 5221 5221 5221 5221 5221 5221 5222 5222 5222 5222 5222 5222 5222 5222 5223 5223 5223 5223 5223 5223 5223 5223 5223 5223 5222 5222 5222 5221 5220 5219 5218 5217 5216 5214 5212 5210 5208 5206 5204 5201 5198 5195 5192 5188 5185 5182 5179
5245 5244 5243 5242 5241 5240 5239 5238 5237 5236 5236 5236 5235 5235 5235 5234 5234 5233 5233 5232 5231 5230 5229 5228 5227 5226 5225 5224 5224 5223 5223 5222 5222 5222 5222 5222 5222 5222 5222 5222 5222 5222 5222 5222 5222 5222 5222 5222 5223 5223 5223 5223 5222 5222 5222 5222 5222 5222 5222 5222 5222 5221 5221 5220 5219 5219 5217 5216 5215 5213 5212 5210 5208 5206 5204 5201 5198 5195 5192 5189 5186 5182 5179 5176 5173
5246 5245 5243 5242 5241 5240 5239 5238 5237 5237 5236 5236 5236 5236 5235 5235 5234 5234 5233 5232 5231 5230 5230 5229 5228 5227 5227 5226 5225 5225 5224 5224 5224 5223 5223 5223 5223 5223 5223 5223 5223 5223 5223 5223 5223 5223 5223 5223 5223 5223 5223 5222 5222 5222 5222 5222 5221 5221 5221 5220 5220 5219 5219 5218 5217 5215 5214 5213 5211 5210 5208 5206 5204 5202 5199 5196 5193 5190 5186 5183 5180 5176 5173 5170 5167
5246 5245 5244 5242 5241 5240 5239 5238 5237 5237 5236 5236 5237 5236 5236 5235 5235 5235 5234 5233 5232 5231 5230 5229 5229 5228 5228 5227 5227 5226 5226 5226 5225 5225 5225 5225 5225 5225 5224 5224 5224 5224 5224 5224 5223 5223 5223 5223 5223 5222 5222 5222 5221 5221 5221 5220 5220 5220 5219 5219 5218 5217 5216 5215 5214 5213 5211 5210 5208 5207 5205 5203 5200 5198 5195 5191 5188 5185 5181 5177 5174 5171 5167 5164 5161